Zurück zum Katalog

STARLINK-35584

AktivKommunikationVLEO
NORAD 66106·PAYLOAD·🇺🇸 United States

Gestartet Oct 19, 2025 von Vandenberg Space Force Base

Loading…

Nächste Überflüge (nächste 24 Stunden)

TLE

AktuellSource: CelesTrak SupGP

Epoche: Sep 14, 2026, 21:24 UTC

1 66106C 25236W   26257.89215278  .00012668  00000+0  37452-3 0  2574
2 66106  53.1587 301.6019 0001112  96.8708 164.0622 15.34364255    13

Verfolge STARLINK-35584 in Echtzeit mit AllMySat

Download on the App Store